{"data":{"norad_id":40663,"intl_designator":"2015-026A","name":"DIRECTV 15","alt_names":[],"object_type":"PAYLOAD","status":"ACTIVE","operator":null,"country":"US","launch_date":"2015-05-27","launch_site_code":"FRGUI","launch_vehicle":null,"mission":null,"orbit_class":"UNKNOWN","rcs_meters":42.7129,"size_class":null,"mass_kg":null,"dimensions":null,"purposes":["comms"],"wikipedia_slug":null,"has_3d_model":false,"image_url":null,"decayed_at":null,"tle_current":{"epoch":"2026-09-19T04:52:46.772832Z","epoch_age_seconds":126413,"freshness":"FRESH","line1":"1 40663U 15026A   26262.20331913 -.00000107  00000+0  00000+0 0  9990","line2":"2 40663   0.0191 107.0242 0000829  34.8612 186.5714  1.00272874 41403","mean_motion":1.00272874,"eccentricity":8.29e-5,"inclination_deg":0.0191,"raan_deg":107.0242,"arg_perigee_deg":34.8612,"mean_anomaly_deg":186.5714,"bstar":0,"rev_number":4140,"period_min":1436.081307493,"perigee_km":35782.79424675,"apogee_km":35789.785108693,"semimajor_km":42164.426677722,"source":"CELESTRAK","updated_at":"2026-09-20T09:00:35.521770Z"}}}